Starlink 11469

operational
NORAD ID: 62227 Int'l Des: 2024-231 Owner: SPXS Country: US Constellation: starlink
LEOCIRCULAR

Über Starlink 11469

Beschreibung wird geladen...

Live-Position

3D-Globus wird geladen...

Nächste Überflüge

Höhenverlauf

Altitude vs Time

uPlot chart will show altitude changes over time

Zweizeiliger Elementsatz

1 62227U 24231K 25352.58468694 .00204609 00000-0 16421-2 0 9995
2 62227 53.1566 141.0377 0000920 136.9090 223.2000 15.69860798 60676
Epoch: 18. Dez. 2025 • Age: 10 hours

Aktueller Status

Höhe 376.7 km
Geschwindigkeit 7.68 km/s
Subsatellitenpunkt -50.37°S, 19.28°W
Startdatum 5. Dez. 2024
Alter 1 years
Typ internet

Technische Details

Klassifizierung Payload
Masse 960.00 kg
Trockenmasse 910.00 kg
Gesamtmasse 960.00 kg
Länge 0.30 m
Durchmesser 4.10 m
Spannweite 29.00 m
Form Box + pan
Hersteller SPXS
Bus-Typ Starlink V2MD
Phasenstatus In Orbit
Besitzer/Staat SPXS/US

Große Konstellationen

Loading constellations...